www.pogodaiklimat.ru
ПОГОДА в Джалинде
Время
(UTC), дата
12 27.06
15 27.06
18 27.06
21 27.06
00 28.06
03 28.06
06 28.06
09 28.06
12 28.06
15 28.06
18 28.06
21 28.06
00 29.06
03 29.06
06 29.06
09 29.06
12 29.06
15 29.06
18 29.06
21 29.06
00 30.06
03 30.06
06 30.06
09 30.06
12 30.06
15 30.06
18 30.06
21 30.06
00 1.07
03 1.07
06 1.07
09 1.07
12 1.07
15 1.07
18 1.07
21 1.07
00 2.07
03 2.07
06 2.07
09 2.07
12 2.07
15 2.07
18 2.07
21 2.07
00 3.07
03 3.07
06 3.07
09 3.07
12 3.07
15 3.07
18 3.07
21 3.07
00 4.07
03 4.07
Ветер
(напр.,м/с)
Видим. Явления Облачность Т
(С)
Тd
(С)
f
(%)
Тe
(С)
Тes
(С)
Комфортность P
(гПа)
Po
(гПа)
Тmin
(С)
Tmax
(С)
R
(мм)
R24
(мм)
S
(см)
В 1 50 км {гроза} 10/6 1000 м
[Sc Ac trans Ci]
+16.7 +14.3 86 +18 +18 1004.8 974.1 +25.9
С 2 50 км 10/8 600 м
[Cb cap Ci]
+15.3 +13.4 88 +15 +15 1005.7 974.8
С 1 50 км 10/3 600 м
[Cb cap Cs]
+13.2 +12.3 94 +13 +13 1006.1 974.9
С 2 20 км 9/9 600 м
[Cb cap]
+13.5 +12.6 94 +13 +13 1006.7 975.6
З 1 20 км 9/1 600 м
[Cu hum Ac cast Cc]
+18.4 +14.7 79 +20 +25 1006.9 976.3 +12.7
Ю 2 20 км 9/4 600 м
[Cb calv Ci]
+24.6 +13.6 50 +27 +35 жарко 1005.0 975.0
Ю 3 10 км гроза, ливневой дождь 9/9 600 м
[Cb cap]
+16.8 +15.0 89 +17 +18 1006.6 975.8
Ю 1 20 км {гроза, ливн. дождь} 10/0
[As op]
+17.6 +16.0 90 +19 +20 1005.6 975.0
штиль 0 10 км {гроза, ливн. дождь} 8/0
[Ac As Ci]
+15.8 +15.0 95 +16 +16 1007.2 976.3 +25.9 3
С 1 500 м туман ?/? +14.1 +13.5 96 +14 +14 1008.0 976.9
СЗ 2 500 м туман ?/? +12.6 +12.0 96 +12 +12 1009.1 977.8
С 1 500 м туман ?/? +11.8 +11.3 97 +12 +12 1010.0 978.6
ЮЗ 2 10 км в посл. час туман ясно +14.8 +14.3 97 +14 +23 1009.7 978.7 +11.6
З 1 50 км 3/1 600 м
[Cu med, cong Ci fib]
+24.5 +11.4 44 +26 +42 жарко 1008.0 978.0
ЮЗ 1 50 км 4/3 600 м
[Cb cap Ci ing]
+27.8 +10.9 35 +29 +39 жарко 1005.9 976.2
СВ 1 50 км 8/4 600 м
[Cb cap Ci]
+25.8 +14.9 51 +29 +31 душно 1005.3 975.5
В 1 50 км 3/1 1000 м
[Sc diur, vesp Ci]
+19.8 +16.1 79 +23 +23 комфорт 1007.0 976.6 +29.8
С 1 50 км ясно +14.8 +13.7 93 +15 +15 1008.5 977.4
СЗ 2 500 м туман ?/? +13.0 +12.4 96 +12 +12 1009.2 977.9
С 2 500 м туман ?/? +12.1 +11.5 96 +11 +11 1010.0 978.6
З 3 50 км {туман} ясно +18.9 +15.2 79 +20 +27 1008.9 978.3 +11.5
З 2 50 км ясно +26.7 +17.0 55 +30 +47 душно 1007.2 977.5
СЗ 2 50 км гроза без осадков 8/8 600 м
[Cb cap]
+31.3 +10.0 27 +31 +34 жарко 1005.5 976.2
СЗ 3
{11}
20 км {гроза} 4/0
[Ci]
+28.1 +12.8 39 +30 +33 жарко 1005.4 975.8
С 1 20 км {гроза} ясно +22.4 +17.1 72 +27 +27 душно 1006.7 976.5 +32.2
СЗ 1 20 км ясно +15.2 +13.4 89 +16 +16 1008.2 977.2
СЗ 2 20 км ясно +12.8 +12.0 95 +12 +12 1009.1 977.9
С 3 10 км 1/0
[Ci]
+14.0 +13.1 94 +13 +14 1009.6 978.4
СЗ 3 10 км 1/0
[Ci]
+20.5 +14.5 68 +23 +30 комфорт 1008.6 978.2 +11.2
З 2 10 км ясно +27.9 +16.2 49 +31 +47 душно 1006.9 977.3
СЗ 2 10 км 6/6 600 м
[Cb calv]
+33.2 +11.8 27 +33 +38 жарко 1004.8 975.7
Ю 2 10 км {гроза, ливн. дождь} 8/1 600 м
[Cu med, cong Ac trans Ci]
+29.0 +20.4 60 +36 +38 очень
душно
1004.4 975.0
штиль 0 10 км {гроза, ливн. дождь} 10/0
[Ac trans Ci]
+21.4 +18.1 81 +26 +26 душно 1006.4 976.2 +34.0 2
СЗ 1 10 км 10/0
[Ci]
+16.4 +14.4 88 +17 +17 1007.7 976.9
СЗ 2 10 км 10/0
[Ac trans Ci]
+13.8 +12.7 93 +13 +13 1009.2 978.0
штиль 0 10 км 9/3 1000 м
[Sc Ac cast Ci]
+13.7 +12.4 92 +13 +14 1010.9 979.6
ЮЗ 1 10 км 6/3 600 м
[Cu med, cong Ci]
+20.6 +14.5 68 +24 +31 комфорт 1011.1 980.6 +12.4
Ю 3 10 км 4/3 600 м
[Cu med, cong Ci]
+25.3 +16.9 60 +29 +38 душно 1010.0 980.0
Ю 2 10 км 5/0
[Ci]
+28.3 +17.6 52 +32 +44 душно 1008.2 978.6
ЮВ 2 4000 м мгла 4/0
[Ci]
+28.5 +16.1 47 +32 +35 душно 1007.2 977.6
ЮВ 1 4000 м мгла 6/0
[Ac trans Ci]
+22.6 +18.3 77 +28 +28 душно 1008.0 977.8 +28.8
СЗ 5 10 км зарница 8/4 600 м
[Cb cap Ci]
+21.5 +15.1 67 +25 +25 комфорт 1009.2 978.8
СВ 1 20 км 10/0
[Ac trans Ci]
+16.7 +13.2 80 +18 +18 1008.9 978.1
З 1 10 км 8/0
[Ac lent Ci]
+14.3 +12.8 91 +15 +15 1009.4 978.3
СЗ 1 10 км 8/0
[Ci]
+22.8 +14.1 58 +26 +35 жарко 1007.7 977.5 +12.9
СЗ 4 10 км 9/0
[Ci]
+27.2 +13.3 42 +29 +38 жарко 1005.0 975.3
СЗ 3 10 км 3/1 1000 м
[Cu hum Ci]
+30.7 +11.0 30 +31 +40 жарко 1001.6 972.3
З 1 10 км 8/0
[Ci]
+31.3 +11.0 29 +31 +35 жарко 999.4 970.3
С 2
{10}
10 км 10/8 600 м
[Cb cap Ac trans Ci]
+25.8 +12.0 42 +27 +27 жарко 1001.0 971.3 +31.9
ЮВ 1 10 км слаб. ливневой дождь {гроза} 10/6 600 м
[Cb cap Ac lent Ci]
+17.1 +16.0 93 +18 +18 1002.0 971.4
С 1 10 км {гроза, ливн. дождь} 10/0
[Ac trans Ci]
+15.5 +14.8 96 +16 +16 1003.2 972.4
С 2 500 м туман ?/? +13.3 +12.7 96 +12 +12 1002.5 971.5
СЗ 3 500 м туман 9/0
[Ac trans]
+16.0 +15.2 95 +15 +19 1002.1 971.4 +13.2 3
В 2 10 км {туман} 8/1 600 м
[Cu hum Ac trans Ci]
+23.9 +9.7 41 +25 +34 комфорт 999.8 969.9
Местоположение метеостанции Джалинда (Амурская область, Россия): широта 53.47 долгота 123.90 высота над уровнем моря 266 м.
В архиве по умолчанию представлена погода в Джалинде за последнюю неделю. Архивные данные за месяц целиком и за предыдущие месяцы, начиная с января 2011 года, Вы можете получить, выбрав интересующий диапазон дат из раскрывающегося списка и нажав кнопку "Найти!".
*Определитесь, кто Вы:
Внимание! Время в таблицах - всемирное. Для получения местного времени необходимо прибавить поправку, которая равна 9 ч.
Смотрите также архив погоды в соседних городах и на ближайших метеорологических станциях:
Партнеры нашего сайта:      
Пояснения к столбцам:
  • Ветер - указаны скорость ветра в м/с - средняя за 10 мин, порывы в срок и между сроками (в фигурных скобках) и направление, откуда дует ветер: С - северный,
  • СВ - северо-восточный, В - восточный, ЮВ - юго-восточный, Ю - южный, ЮЗ - юго-западный, З - западный, СЗ - северо-западный.
  • Видимость - горизонтальная дальность видимости в метрах или километрах. При видимости от 1 до 10 км при отсутствии осадков обычно наблюдается дымка, при ухудшении видимости до 1 км и менее - туман. В сухую погоду видимость может ухудшаться дымом, пылью или мглою.
  • Явления - указаны атмосферные явления, наблюдавшиеся в срок или в последний час перед сроком; фигурными скобками обозначены явления, наблюдавшиеся между сроками (за 1-3 часа до срока); квадратными скобками обозначены град или гололедные отложения с указанием их диаметра в мм.
  • Облачность - указаны через наклонную черту общая и нижняя облачность в баллах и высота нижней границы облаков в метрах; квадратными скобками обозначены формы облаков: Ci - перистые, Cs - перисто-слоистые, Cc - перисто-кучевые, Ac - высококучевые, As - высокослоистые, Sc - слоисто-кучевые, Ns - слоисто-дождевые, Cu - кучевые, Cb - кучево-дождевые. Подробнее классификацию облаков см. в Атласе облаков (PDF).
  • T - Температура воздуха - температура, измеренная на высоте 2 м над землей.
  • Td - Температура точки росы - температура, при понижении до которой содержащийся в воздухе водяной пар достигнет насыщения.
  • f - Относительная влажность воздуха - влажноcть воздуха, измеренная на высоте 2 м над землей.
  • Te - Эффективная температура - температура, которую ощущает одетый по сезону человек в тени. Характеристика душности погоды. При расчете учитывается влияние влажности воздуха и скорости ветра на теплоощущения человека.
  • Tes - Эффективная температура на солнце - температура, которую ощущает человек, с поправкой на солнечный нагрев. Характеристика знойности погоды. Зависит от высоты солнца над горизонтом, облачности и скорости ветра. Ночью, в пасмурную погоду, а также при ветре 12 м/с и более поправка равна нулю.
  • P - Атмосферное давление - приведенное к уровню моря атмосферное давление.
  • Po - Атмосферное давление - измеренное на уровне метеостанции атмосферное давление.
  • Tmin - Минимальная температура - минимум температуры воздуха на высоте 2 м над землей.
  • Tmax - Максимальная температура - максимум температуры воздуха на высоте 2 м над землей.
  • R - Количество осадков - Количество выпавших осадков за период времени, мм. При наведении курсора мыши на число - период времени, за который выпало указанное количество осадков.
  • R24 - Количество осадков - Количество выпавших осадков за 24 часа, мм.
  • S - Снежный покров - Высота снежного покрова, см. При наведении курсора мыши на число - состояние снежного покрова и степень покрытия местности в баллах.